Location: Newark
(26.0814°N, 97.8289°W)
Time: 05:59:10
(UTC+00:00)

Envisat - Visible Passes

Search period start: 20 January 2020 00:00
Search period end: 30 January 2020 00:00
Orbit: 764 x 766 km, 98.1° (Epoch: 19 January)

Date Brightness Start Highest point End Pass type
(mag) Time Alt. Az. Time Alt. Az. Time Alt. Az.
20 Jan 3.0 00:28:07 10° SSE 00:33:10 77° ENE 00:38:14 10° N visible
20 Jan 4.0 12:45:14 10° NNE 12:50:11 52° E 12:55:06 10° S visible
21 Jan 5.6 01:31:43 10° SW 01:35:30 21° W 01:39:16 10° NW visible
21 Jan 5.9 12:09:37 10° NE 12:13:18 20° E 12:16:58 10° SE visible
22 Jan 3.9 00:53:41 10° S 00:58:37 54° W 01:03:35 10° NNW visible
23 Jan 6.5 02:00:40 10° W 02:01:08 10° W 02:01:35 10° W visible
23 Jan 4.7 12:34:09 10° NNE 12:38:52 39° E 12:43:34 10° SSE visible
24 Jan 5.2 01:19:52 10° SSW 01:24:09 28° W 01:28:27 10° NW visible
24 Jan 6.1 11:59:05 10° ENE 12:01:57 15° E 12:04:48 10° SE visible
25 Jan 3.3 00:42:17 10° S 00:47:20 73° WSW 00:52:25 10° NNW visible
26 Jan 6.2 01:47:08 10° SW 01:49:46 14° W 01:52:23 10° WNW visible
26 Jan 5.2 12:23:09 10° NE 12:27:33 29° E 12:31:56 10° SSE visible
27 Jan 4.7 01:08:12 10° SSW 01:12:50 36° W 01:17:30 10° NNW visible
27 Jan 6.5 11:49:14 10° ENE 11:50:36 11° E 11:51:56 10° ESE visible
28 Jan 3.0 00:30:59 10° SSE 00:36:03 85° ENE 00:41:09 10° N visible
28 Jan 3.8 12:48:04 10° NNE 12:53:04 58° E 12:58:03 10° S visible
29 Jan 5.8 01:34:53 10° SW 01:38:24 19° W 01:41:56 10° NW visible
29 Jan 5.7 12:12:18 10° NE 12:16:13 22° E 12:20:08 10° SSE visible
